DAL1581 KDEN-KSLC

Flight info

Callsign DAL1581
Flight time 1h 7m
Altitude 32000
Route ZIMMR4 CHNGY EKR RACER PITTT2
Aircraft B738/M-SDE2E3FGHIRWXY/LB1

Departure

Time 2026-05-07 13:40
Airport Denver International Airport (KDEN)

Arrival

Time 2026-05-07 14:47
Airport Salt Lake City International Airport (KSLC)
Time Latitude Longitude Altitude Speed Heading
2026-05-07 12:58 39.85440 -104.67113 5382 ft 0 kts 164°
2026-05-07 13:19 39.85444 -104.67114 5383 ft 0 kts 165°
2026-05-07 13:19 39.85440 -104.67113 5382 ft 0 kts 164°
2026-05-07 13:31 39.85458 -104.67117 5382 ft 4 kts 174°
2026-05-07 13:31 39.85479 -104.67120 5382 ft 4 kts 173°
2026-05-07 13:31 39.85493 -104.67123 5382 ft 0 kts 173°
2026-05-07 13:33 39.85491 -104.67120 5382 ft 1 kts 148°
2026-05-07 13:33 39.85493 -104.67109 5382 ft 2 kts 69°
2026-05-07 13:34 39.85516 -104.67059 5382 ft 11 kts 58°
2026-05-07 13:34 39.85588 -104.66836 5381 ft 15 kts 85°
2026-05-07 13:34 39.85589 -104.66687 5381 ft 18 kts 91°
2026-05-07 13:35 39.85586 -104.66513 5382 ft 20 kts 90°
2026-05-07 13:35 39.85584 -104.66352 5389 ft 11 kts 91°
2026-05-07 13:35 39.85598 -104.66258 5390 ft 12 kts 48°
2026-05-07 13:35 39.85702 -104.66236 5387 ft 20 kts
2026-05-07 13:36 39.85866 -104.66233 5387 ft 27 kts
2026-05-07 13:36 39.86062 -104.66229 5385 ft 29 kts
2026-05-07 13:36 39.86273 -104.66228 5381 ft 31 kts
2026-05-07 13:36 39.86465 -104.66219 5378 ft 24 kts 15°
2026-05-07 13:37 39.86499 -104.66058 5380 ft 19 kts 91°
2026-05-07 13:37 39.86498 -104.65874 5372 ft 22 kts 90°
2026-05-07 13:37 39.86496 -104.65666 5369 ft 25 kts 90°
2026-05-07 13:37 39.86494 -104.65430 5363 ft 27 kts 91°
2026-05-07 13:38 39.86491 -104.65170 5361 ft 30 kts 91°
2026-05-07 13:38 39.86491 -104.64890 5355 ft 32 kts 90°
2026-05-07 13:38 39.86489 -104.64602 5349 ft 25 kts 91°
2026-05-07 13:38 39.86487 -104.64424 5345 ft 19 kts 90°
2026-05-07 13:39 39.86486 -104.64257 5344 ft 17 kts 90°
2026-05-07 13:39 39.86458 -104.64138 5347 ft 12 kts 156°
2026-05-07 13:39 39.86378 -104.64132 5345 ft 13 kts 180°
2026-05-07 13:39 39.86093 -104.64135 5348 ft 73 kts 181°
2026-05-07 13:40 39.85384 -104.64145 5355 ft 129 kts 180°
2026-05-07 13:40 39.84325 -104.64166 5394 ft 172 kts 183°
2026-05-07 13:40 39.83104 -104.64212 6081 ft 176 kts 185°
2026-05-07 13:40 39.81935 -104.64696 6738 ft 182 kts 222°
2026-05-07 13:41 39.81295 -104.66119 7322 ft 193 kts 256°
2026-05-07 13:41 39.81397 -104.67952 7530 ft 220 kts 288°
2026-05-07 13:41 39.82192 -104.69791 7811 ft 243 kts 301°
2026-05-07 13:41 39.83203 -104.71667 8143 ft 266 kts 303°
2026-05-07 13:42 39.84295 -104.73651 8899 ft 270 kts 304°
2026-05-07 13:42 39.85372 -104.75628 9911 ft 267 kts 304°
2026-05-07 13:42 39.86450 -104.77626 10668 ft 273 kts 305°
2026-05-07 13:42 39.87540 -104.79671 11459 ft 276 kts 305°
2026-05-07 13:43 39.88635 -104.81740 12265 ft 279 kts 306°
2026-05-07 13:43 39.89740 -104.83837 13025 ft 282 kts 306°
2026-05-07 13:43 39.90852 -104.85953 13821 ft 284 kts 306°
2026-05-07 13:43 39.91950 -104.88043 14672 ft 283 kts 305°
2026-05-07 13:44 39.92948 -104.90310 15381 ft 289 kts 291°
2026-05-07 13:44 39.93320 -104.92858 16085 ft 295 kts 276°
2026-05-07 13:44 39.93381 -104.95538 16820 ft 297 kts 275°
2026-05-07 13:44 39.93423 -104.98235 17514 ft 299 kts 275°
2026-05-07 13:45 39.93472 -105.00953 18200 ft 301 kts 275°
2026-05-07 13:45 39.93525 -105.03685 18882 ft 302 kts 275°
2026-05-07 13:45 39.93586 -105.06446 19459 ft 307 kts 275°
2026-05-07 13:45 39.93648 -105.09249 20042 ft 311 kts 275°
2026-05-07 13:46 39.93711 -105.12074 20678 ft 313 kts 275°
2026-05-07 13:46 39.93773 -105.14899 21260 ft 316 kts 275°
2026-05-07 13:46 39.93835 -105.17748 21798 ft 320 kts 275°
2026-05-07 13:46 39.93899 -105.20654 22364 ft 322 kts 275°
2026-05-07 13:47 39.93996 -105.23579 22934 ft 323 kts 278°
2026-05-07 13:47 39.94219 -105.26512 23466 ft 326 kts 279°
2026-05-07 13:47 39.94476 -105.29454 23974 ft 328 kts 280°
2026-05-07 13:47 39.94728 -105.32422 24473 ft 331 kts 280°
2026-05-07 13:48 39.94971 -105.35422 24967 ft 334 kts 279°
2026-05-07 13:48 39.95208 -105.38432 25498 ft 335 kts 279°
2026-05-07 13:48 39.95447 -105.41484 25728 ft 346 kts 279°
2026-05-07 13:48 39.95697 -105.44659 25835 ft 359 kts 279°
2026-05-07 13:49 39.95956 -105.47944 25920 ft 371 kts 278°
2026-05-07 13:49 39.96221 -105.51345 26103 ft 380 kts 278°
2026-05-07 13:49 39.96488 -105.54791 26520 ft 382 kts 278°
2026-05-07 13:49 39.96752 -105.58239 26973 ft 383 kts 278°
2026-05-07 13:50 39.97015 -105.61695 27411 ft 384 kts 278°
2026-05-07 13:50 39.97278 -105.65163 27806 ft 385 kts 278°
2026-05-07 13:50 39.97515 -105.68622 28005 ft 392 kts 277°
2026-05-07 13:51 39.97886 -105.75885 28168 ft 411 kts 276°
2026-05-07 13:51 39.98060 -105.79634 28288 ft 418 kts 276°
2026-05-07 13:51 39.98239 -105.83452 28476 ft 422 kts 276°
2026-05-07 13:51 39.98419 -105.87278 28867 ft 422 kts 276°
2026-05-07 13:52 39.98601 -105.91080 29380 ft 418 kts 276°
2026-05-07 13:52 39.98782 -105.94847 29856 ft 415 kts 276°
2026-05-07 13:52 39.98962 -105.98595 30307 ft 413 kts 276°
2026-05-07 13:52 39.99141 -106.02278 30682 ft 412 kts 276°
2026-05-07 13:53 39.99321 -106.06003 31049 ft 411 kts 276°
2026-05-07 13:53 39.99498 -106.09721 31472 ft 409 kts 276°
2026-05-07 13:53 39.99673 -106.13417 31856 ft 407 kts 276°
2026-05-07 13:53 39.99846 -106.17100 32218 ft 406 kts 276°
2026-05-07 13:54 40.00018 -106.20772 32301 ft 407 kts 276°
2026-05-07 13:54 40.00302 -106.26898 32306 ft 407 kts 276°
2026-05-07 13:55 40.00638 -106.34252 32317 ft 405 kts 276°
2026-05-07 13:55 40.00969 -106.41591 32312 ft 404 kts 276°
2026-05-07 13:56 40.01292 -106.48903 32320 ft 403 kts 276°
2026-05-07 13:56 40.01611 -106.56188 32322 ft 402 kts 276°
2026-05-07 13:57 40.01925 -106.63428 32316 ft 403 kts 276°
2026-05-07 13:57 40.02237 -106.70739 32317 ft 404 kts 276°
2026-05-07 13:58 40.02544 -106.78066 32311 ft 405 kts 276°
2026-05-07 13:58 40.02848 -106.85433 32316 ft 407 kts 276°
2026-05-07 13:59 40.03149 -106.92828 32302 ft 408 kts 276°
2026-05-07 13:59 40.03446 -107.00240 32292 ft 409 kts 276°
2026-05-07 14:00 40.03739 -107.07659 32302 ft 410 kts 276°
2026-05-07 14:00 40.04026 -107.15098 32302 ft 410 kts 276°
2026-05-07 14:01 40.04310 -107.22533 32301 ft 411 kts 276°
2026-05-07 14:01 40.04587 -107.29930 32291 ft 409 kts 276°
2026-05-07 14:02 40.04860 -107.37347 32296 ft 409 kts 276°
2026-05-07 14:02 40.05130 -107.44773 32282 ft 411 kts 276°
2026-05-07 14:03 40.05396 -107.52233 32274 ft 412 kts 276°
2026-05-07 14:03 40.05656 -107.59719 32257 ft 413 kts 276°
2026-05-07 14:04 40.05912 -107.67210 32268 ft 413 kts 276°
2026-05-07 14:04 40.06165 -107.74717 32263 ft 414 kts 276°
2026-05-07 14:05 40.06414 -107.82236 32253 ft 414 kts 276°
2026-05-07 14:05 40.06656 -107.89700 32259 ft 414 kts 276°
2026-05-07 14:06 40.06932 -107.97215 32264 ft 414 kts 277°
2026-05-07 14:06 40.07287 -108.04723 32254 ft 414 kts 277°
2026-05-07 14:07 40.07640 -108.12222 32262 ft 413 kts 277°
2026-05-07 14:07 40.07978 -108.19676 32248 ft 414 kts 277°
2026-05-07 14:08 40.08308 -108.27179 32253 ft 414 kts 276°
2026-05-07 14:08 40.08633 -108.34694 32245 ft 414 kts 277°
2026-05-07 14:09 40.08953 -108.42194 32244 ft 413 kts 277°
2026-05-07 14:09 40.09268 -108.49680 32240 ft 412 kts 277°
2026-05-07 14:10 40.09575 -108.57144 32250 ft 412 kts 277°
2026-05-07 14:10 40.09878 -108.64614 32235 ft 412 kts 277°
2026-05-07 14:11 40.10174 -108.72028 32239 ft 411 kts 277°
2026-05-07 14:11 40.10470 -108.79499 32223 ft 410 kts 277°
2026-05-07 14:12 40.10760 -108.86939 32232 ft 410 kts 277°
2026-05-07 14:12 40.11043 -108.94383 32232 ft 410 kts 277°
2026-05-07 14:13 40.11320 -109.01831 32231 ft 411 kts 277°
2026-05-07 14:13 40.11592 -109.09247 32233 ft 411 kts 277°
2026-05-07 14:14 40.11863 -109.16716 32230 ft 412 kts 277°
2026-05-07 14:14 40.12130 -109.24196 32229 ft 412 kts 277°
2026-05-07 14:15 40.12392 -109.31692 32220 ft 413 kts 277°
2026-05-07 14:15 40.12647 -109.39183 32222 ft 413 kts 277°
2026-05-07 14:16 40.12899 -109.46693 32219 ft 414 kts 277°
2026-05-07 14:16 40.13146 -109.54209 32229 ft 414 kts 277°
2026-05-07 14:17 40.13388 -109.61672 32227 ft 414 kts 277°
2026-05-07 14:17 40.13627 -109.69209 32233 ft 414 kts 277°
2026-05-07 14:18 40.13862 -109.76746 32228 ft 415 kts 276°
2026-05-07 14:18 40.14089 -109.84286 32233 ft 415 kts 276°
2026-05-07 14:19 40.14314 -109.91820 32230 ft 415 kts 276°
2026-05-07 14:19 40.14534 -109.99372 32232 ft 415 kts 276°
2026-05-07 14:20 40.14749 -110.06919 32229 ft 416 kts 276°
2026-05-07 14:20 40.14942 -110.14428 32235 ft 417 kts 275°
2026-05-07 14:21 40.14910 -110.22026 32226 ft 418 kts 274°
2026-05-07 14:21 40.14805 -110.29627 32229 ft 418 kts 274°
2026-05-07 14:22 40.14715 -110.37231 32229 ft 418 kts 274°
2026-05-07 14:22 40.14638 -110.44815 32228 ft 417 kts 274°
2026-05-07 14:23 40.14560 -110.52407 32234 ft 417 kts 274°
2026-05-07 14:23 40.14481 -110.59988 31916 ft 418 kts 274°
2026-05-07 14:23 40.14438 -110.63762 31511 ft 412 kts 274°
2026-05-07 14:24 40.14394 -110.67433 31086 ft 406 kts 274°
2026-05-07 14:24 40.14350 -110.71112 30608 ft 402 kts 274°
2026-05-07 14:24 40.14306 -110.74747 30152 ft 399 kts 273°
2026-05-07 14:24 40.14262 -110.78344 29678 ft 394 kts 273°
2026-05-07 14:25 40.14216 -110.81923 29202 ft 390 kts 273°
2026-05-07 14:25 40.14170 -110.85454 28732 ft 387 kts 273°
2026-05-07 14:25 40.14123 -110.88952 28254 ft 384 kts 273°
2026-05-07 14:25 40.14076 -110.92428 27783 ft 381 kts 273°
2026-05-07 14:26 40.14028 -110.95871 27326 ft 378 kts 273°
2026-05-07 14:26 40.13979 -110.99300 26851 ft 375 kts 273°
2026-05-07 14:26 40.13930 -111.02691 26395 ft 372 kts 273°
2026-05-07 14:26 40.13880 -111.06056 25931 ft 369 kts 273°
2026-05-07 14:27 40.13830 -111.09396 25487 ft 366 kts 273°
2026-05-07 14:27 40.13780 -111.12717 25028 ft 364 kts 273°
2026-05-07 14:27 40.13729 -111.16007 24575 ft 361 kts 272°
2026-05-07 14:27 40.13676 -111.19276 24124 ft 358 kts 272°
2026-05-07 14:28 40.13623 -111.22519 23682 ft 356 kts 272°
2026-05-07 14:28 40.13570 -111.25702 23244 ft 353 kts 272°
2026-05-07 14:28 40.13515 -111.28903 22810 ft 351 kts 272°
2026-05-07 14:28 40.13460 -111.32086 22357 ft 349 kts 272°
2026-05-07 14:29 40.13403 -111.35252 21901 ft 347 kts 272°
2026-05-07 14:29 40.13347 -111.38399 21470 ft 345 kts 272°
2026-05-07 14:29 40.13292 -111.41523 21035 ft 343 kts 272°
2026-05-07 14:29 40.13236 -111.44632 20584 ft 341 kts 272°
2026-05-07 14:30 40.13180 -111.47719 20163 ft 338 kts 272°
2026-05-07 14:30 40.13121 -111.50787 19741 ft 337 kts 272°
2026-05-07 14:30 40.13119 -111.53841 19309 ft 334 kts 279°
2026-05-07 14:30 40.13681 -111.56717 19131 ft 322 kts 294°
2026-05-07 14:31 40.14621 -111.59361 18983 ft 323 kts 298°
2026-05-07 14:31 40.15663 -111.62043 18769 ft 337 kts 298°
2026-05-07 14:31 40.16702 -111.64763 18590 ft 338 kts 297°
2026-05-07 14:31 40.17730 -111.67514 18422 ft 335 kts 297°
2026-05-07 14:32 40.18741 -111.70244 18269 ft 332 kts 297°
2026-05-07 14:32 40.19742 -111.72961 18125 ft 331 kts 297°
2026-05-07 14:32 40.20742 -111.75675 17988 ft 330 kts 297°
2026-05-07 14:32 40.21739 -111.78381 17852 ft 330 kts 297°
2026-05-07 14:33 40.22736 -111.81094 17719 ft 330 kts 297°
2026-05-07 14:33 40.23733 -111.83805 17575 ft 331 kts 297°
2026-05-07 14:33 40.24731 -111.86521 17436 ft 331 kts 297°
2026-05-07 14:33 40.25729 -111.89244 17293 ft 331 kts 297°
2026-05-07 14:34 40.26829 -111.91885 17138 ft 331 kts 306°
2026-05-07 14:34 40.28318 -111.94179 16969 ft 332 kts 315°
2026-05-07 14:34 40.30092 -111.96088 16667 ft 334 kts 327°
2026-05-07 14:34 40.32086 -111.97615 16404 ft 330 kts 329°
2026-05-07 14:35 40.34084 -111.99076 16113 ft 327 kts 329°
2026-05-07 14:35 40.36057 -112.00532 15836 ft 323 kts 329°
2026-05-07 14:35 40.37999 -112.01987 15553 ft 320 kts 329°
2026-05-07 14:35 40.39270 -112.02944 15370 ft 317 kts 329°
2026-05-07 14:36 40.41933 -112.04588 15010 ft 318 kts 339°
2026-05-07 14:36 40.44099 -112.05301 14703 ft 324 kts 349°
2026-05-07 14:36 40.46319 -112.05632 14395 ft 324 kts 352°
2026-05-07 14:36 40.48558 -112.05906 14077 ft 323 kts 352°
2026-05-07 14:37 40.50794 -112.06175 13752 ft 321 kts 352°
2026-05-07 14:37 40.54508 -112.06643 13228 ft 318 kts 352°
2026-05-07 14:37 40.56702 -112.06930 12923 ft 316 kts 351°
2026-05-07 14:38 40.58890 -112.07220 12618 ft 315 kts 351°
2026-05-07 14:38 40.61066 -112.07511 12317 ft 313 kts 351°
2026-05-07 14:38 40.63229 -112.07800 12022 ft 311 kts 352°
2026-05-07 14:38 40.65366 -112.08061 11920 ft 306 kts 352°
2026-05-07 14:39 40.67504 -112.08306 11806 ft 311 kts 352°
2026-05-07 14:39 40.69676 -112.08555 11688 ft 314 kts 352°
2026-05-07 14:39 40.71854 -112.08807 11560 ft 312 kts 352°
2026-05-07 14:39 40.73985 -112.09052 11434 ft 303 kts 352°
2026-05-07 14:40 40.76048 -112.09291 11323 ft 292 kts 352°
2026-05-07 14:40 40.78042 -112.09527 11215 ft 283 kts 352°
2026-05-07 14:40 40.79966 -112.09756 11116 ft 274 kts 352°
2026-05-07 14:40 40.81834 -112.09977 11009 ft 265 kts 352°
2026-05-07 14:41 40.83037 -112.10120 10869 ft 262 kts 352°
2026-05-07 14:41 40.84844 -112.10336 10584 ft 258 kts 352°
2026-05-07 14:41 40.87189 -112.10615 10121 ft 252 kts 353°
2026-05-07 14:41 40.88924 -112.10821 9780 ft 249 kts 353°
2026-05-07 14:42 40.90084 -112.10960 9565 ft 246 kts 353°
2026-05-07 14:42 40.91766 -112.11160 9266 ft 240 kts 354°
2026-05-07 14:42 40.93412 -112.11339 8949 ft 234 kts 357°
2026-05-07 14:42 40.95003 -112.11045 8604 ft 231 kts 23°
2026-05-07 14:43 40.96266 -112.09822 8326 ft 223 kts 51°
2026-05-07 14:43 40.96998 -112.08080 8046 ft 218 kts 73°
2026-05-07 14:43 40.97227 -112.06120 7771 ft 215 kts 94°
2026-05-07 14:43 40.96865 -112.04226 7491 ft 212 kts 118°
2026-05-07 14:44 40.95989 -112.02680 7229 ft 210 kts 140°
2026-05-07 14:44 40.94751 -112.01687 6957 ft 209 kts 161°
2026-05-07 14:44 40.93333 -112.01341 6695 ft 208 kts 175°
2026-05-07 14:44 40.91900 -112.01210 6406 ft 203 kts 176°
2026-05-07 14:45 40.90534 -112.01065 6138 ft 191 kts 175°
2026-05-07 14:45 40.89248 -112.00918 5919 ft 180 kts 175°
2026-05-07 14:45 40.88055 -112.00779 5672 ft 165 kts 174°
2026-05-07 14:45 40.86939 -112.00650 5472 ft 156 kts 173°
2026-05-07 14:46 40.85860 -112.00523 5263 ft 155 kts 172°
2026-05-07 14:46 40.84840 -112.00406 5050 ft 159 kts 172°
2026-05-07 14:46 40.83743 -112.00285 4855 ft 157 kts 172°
2026-05-07 14:46 40.82672 -112.00158 4627 ft 157 kts 172°
2026-05-07 14:47 40.81578 -112.00030 4438 ft 159 kts 172°
2026-05-07 14:47 40.80483 -111.99900 4251 ft 156 kts 173°
2026-05-07 14:47 40.79495 -111.99780 4228 ft 123 kts 175°
2026-05-07 14:47 40.78952 -111.99715 4233 ft 45 kts 172°
2026-05-07 14:48 40.78716 -111.99533 4230 ft 35 kts 133°
2026-05-07 14:48 40.78657 -111.99257 4230 ft 31 kts 85°
2026-05-07 14:48 40.78673 -111.99006 4230 ft 24 kts 85°
2026-05-07 14:48 40.78680 -111.98876 4230 ft 10 kts 85°
2026-05-07 14:49 40.78686 -111.98785 4230 ft 10 kts 85°
2026-05-07 14:49 40.78663 -111.98722 4229 ft 6 kts 174°
2026-05-07 14:49 40.78631 -111.98718 4230 ft 1 kts 175°
2026-05-07 14:49 40.78620 -111.98717 4230 ft 3 kts 175°
2026-05-07 14:50 40.78614 -111.98717 4230 ft 0 kts 175°